Location: Acheville
(50.3840°N, 2.8827°E)
Time: 11:00:31
(UTC+00:00)

Cosmos 2360 Rocket - Pass Details

Date: 24 October 2021
Orbit: 832 x 846 km, 71.0° (Epoch: 01 December)

Event Time Altitude Azimuth Distance (km) Brightness Sun altitude
Rises 18:14:10 0° 186° (S) 3,376 5.4 -15.8°
Reaches altitude 10° 18:16:41 10° 180° (S) 2,448 4.6 -16.2°
Maximum altitude 18:21:59 44° 109° (ESE) 1,146 2.4 -17.1°
Enters shadow 18:26:14 16° 44° (NE) 2,084 3.9 -17.8°
